Location: Unspecified
(0.0000°N, 0.0000°E)
Time: 09:41:54
(UTC+00:00)

HTV-X1 - Pass Details

Date: 12 April 2026
Orbit: 463 x 473 km, 51.6° (Epoch: 10 April)

Event Time Altitude Azimuth Distance (km) Brightness Sun altitude
Exits shadow 05:35:45 - 261° (W) 1,793 ? -6.2°
Reaches altitude 10° 05:36:28 10° 269° (W) 1,607 ? -6.0°
Maximum altitude 05:38:38 15° 306° (NW) 1,326 ? -5.5°
Drops below altitude 10° 05:40:47 10° 343° (NNW) 1,606 ? -5.0°
Sets 05:43:38 0° 7° (N) 2,480 ? -4.3°
